Time,TemperatureF,DewpointF,PressureIn,WindDirection,WindDirectionDegrees,WindSpeedMPH,WindSpeedGustMPH,Humidity,HourlyPrecipIn,Conditions,Clouds,dailyrainin,SoftwareType,DateUTC
2013-03-20 00:21:00,-999.0,-99.9,29.87,North,-999,-999.0,-999.0,-999,0.00,,,0.00,weatherlink.com 1.10,2013-03-20 05:21:00,
2013-03-20 00:36:00,-999.0,-99.9,29.87,North,-999,-999.0,-999.0,-999,0.00,,,0.00,weatherlink.com 1.10,2013-03-20 05:36:00,
2013-03-20 00:51:00,-999.0,-99.9,29.86,North,-999,-999.0,-999.0,-999,0.00,,,0.00,weatherlink.com 1.10,2013-03-20 05:51:00,
2013-03-20 01:06:00,-999.0,-99.9,29.86,North,-999,-999.0,-999.0,-999,0.00,,,0.00,weatherlink.com 1.10,2013-03-20 06:06:00,
2013-03-20 01:21:00,-999.0,-99.9,29.86,North,-999,-999.0,-999.0,-999,0.00,,,0.00,weatherlink.com 1.10,2013-03-20 06:21:00,
2013-03-20 01:36:00,-999.0,-99.9,29.87,North,-999,-999.0,-999.0,-999,0.00,,,0.00,weatherlink.com 1.10,2013-03-20 06:36:00,
2013-03-20 01:51:00,-999.0,-99.9,29.87,North,-999,-999.0,-999.0,-999,0.00,,,0.00,weatherlink.com 1.10,2013-03-20 06:51:00,
2013-03-20 02:06:00,-999.0,-99.9,29.87,North,-999,-999.0,-999.0,-999,0.00,,,0.00,weatherlink.com 1.10,2013-03-20 07:06:00,
2013-03-20 02:21:00,-999.0,-99.9,29.88,North,-999,-999.0,-999.0,-999,0.00,,,0.00,weatherlink.com 1.10,2013-03-20 07:21:00,
2013-03-20 02:37:00,-999.0,-99.9,29.89,North,-999,-999.0,-999.0,-999,0.00,,,0.00,weatherlink.com 1.10,2013-03-20 07:37:00,
2013-03-20 02:52:00,-999.0,-99.9,29.88,North,-999,-999.0,-999.0,-999,0.00,,,0.00,weatherlink.com 1.10,2013-03-20 07:52:00,
2013-03-20 03:07:00,-999.0,-99.9,29.90,North,-999,-999.0,-999.0,-999,0.00,,,0.00,weatherlink.com 1.10,2013-03-20 08:07:00,
2013-03-20 03:22:00,-999.0,-99.9,29.88,North,-999,-999.0,-999.0,-999,0.00,,,0.00,weatherlink.com 1.10,2013-03-20 08:22:00,
2013-03-20 03:37:00,-999.0,-99.9,29.89,North,-999,-999.0,-999.0,-999,0.00,,,0.00,weatherlink.com 1.10,2013-03-20 08:37:00,
2013-03-20 03:52:00,-999.0,-99.9,29.89,North,-999,-999.0,-999.0,-999,0.00,,,0.00,weatherlink.com 1.10,2013-03-20 08:52:00,
2013-03-20 04:07:00,-999.0,-99.9,29.89,North,-999,-999.0,-999.0,-999,0.00,,,0.00,weatherlink.com 1.10,2013-03-20 09:07:00,
2013-03-20 04:22:00,-999.0,-99.9,29.90,North,-999,-999.0,-999.0,-999,0.00,,,0.00,weatherlink.com 1.10,2013-03-20 09:22:00,
2013-03-20 04:37:00,-999.0,-99.9,29.90,North,-999,-999.0,-999.0,-999,0.00,,,0.00,weatherlink.com 1.10,2013-03-20 09:37:00,
2013-03-20 04:52:00,-999.0,-99.9,29.91,North,-999,-999.0,-999.0,-999,0.00,,,0.00,weatherlink.com 1.10,2013-03-20 09:52:00,
2013-03-20 05:07:00,-999.0,-99.9,29.92,North,-999,-999.0,-999.0,-999,0.00,,,0.00,weatherlink.com 1.10,2013-03-20 10:07:00,
2013-03-20 05:22:00,-999.0,-99.9,29.92,North,-999,-999.0,-999.0,-999,0.00,,,0.00,weatherlink.com 1.10,2013-03-20 10:22:00,
2013-03-20 05:37:00,-999.0,-99.9,29.93,North,-999,-999.0,-999.0,-999,0.00,,,0.00,weatherlink.com 1.10,2013-03-20 10:37:00,
2013-03-20 05:52:00,-999.0,-99.9,29.94,North,-999,-999.0,-999.0,-999,0.00,,,0.00,weatherlink.com 1.10,2013-03-20 10:52:00,
2013-03-20 06:09:00,-999.0,-99.9,29.95,North,-999,-999.0,-999.0,-999,0.00,,,0.00,weatherlink.com 1.10,2013-03-20 11:09:00,
2013-03-20 06:23:00,-999.0,-99.9,29.97,North,-999,-999.0,-999.0,-999,0.00,,,0.00,weatherlink.com 1.10,2013-03-20 11:23:00,
2013-03-20 06:38:00,-999.0,-99.9,29.98,North,-999,-999.0,-999.0,-999,0.00,,,0.00,weatherlink.com 1.10,2013-03-20 11:38:00,
2013-03-20 06:53:00,-999.0,-99.9,29.99,North,-999,-999.0,-999.0,-999,0.00,,,0.00,weatherlink.com 1.10,2013-03-20 11:53:00,
2013-03-20 07:08:00,-999.0,-99.9,30.00,North,-999,-999.0,-999.0,-999,0.00,,,0.00,weatherlink.com 1.10,2013-03-20 12:08:00,
2013-03-20 07:23:00,-999.0,-99.9,30.01,North,-999,-999.0,-999.0,-999,0.00,,,0.00,weatherlink.com 1.10,2013-03-20 12:23:00,
2013-03-20 07:38:00,-999.0,-99.9,30.01,North,-999,-999.0,-999.0,-999,0.00,,,0.00,weatherlink.com 1.10,2013-03-20 12:38:00,
2013-03-20 07:53:00,-999.0,-99.9,30.02,North,-999,-999.0,-999.0,-999,0.00,,,0.00,weatherlink.com 1.10,2013-03-20 12:53:00,
2013-03-20 08:08:00,-999.0,-99.9,30.02,North,-999,-999.0,-999.0,-999,0.00,,,0.00,weatherlink.com 1.10,2013-03-20 13:08:00,
2013-03-20 08:23:00,-999.0,-99.9,30.04,North,-999,-999.0,-999.0,-999,0.00,,,0.00,weatherlink.com 1.10,2013-03-20 13:23:00,
2013-03-20 08:38:00,-999.0,-99.9,30.05,North,-999,-999.0,-999.0,-999,0.00,,,0.00,weatherlink.com 1.10,2013-03-20 13:38:00,
2013-03-20 08:53:00,65.9,54.0,30.06,NE,51,21.0,36.0,65,0.00,,,0.00,weatherlink.com 1.10,2013-03-20 13:53:00,
2013-03-20 09:08:00,66.2,53.0,30.07,NE,52,28.0,33.0,63,0.00,,,0.00,weatherlink.com 1.10,2013-03-20 14:08:00,
2013-03-20 09:23:00,66.4,53.0,30.07,NE,42,12.0,32.0,62,0.00,,,0.00,weatherlink.com 1.10,2013-03-20 14:23:00,
2013-03-20 09:38:00,67.2,53.0,30.07,NE,55,22.0,31.0,61,0.00,,,0.00,weatherlink.com 1.10,2013-03-20 14:38:00,
2013-03-20 09:53:00,67.3,53.0,30.08,NE,52,24.0,32.0,61,0.00,,,0.00,weatherlink.com 1.10,2013-03-20 14:53:00,
2013-03-20 10:08:00,67.1,53.0,30.09,NE,49,23.0,34.0,62,0.00,,,0.00,weatherlink.com 1.10,2013-03-20 15:08:00,
2013-03-20 10:23:00,67.5,55.0,30.09,ENE,68,22.0,29.0,64,0.00,,,0.00,weatherlink.com 1.10,2013-03-20 15:23:00,
2013-03-20 10:38:00,67.7,55.0,30.11,ENE,69,20.0,29.0,64,0.00,,,0.00,weatherlink.com 1.10,2013-03-20 15:38:00,
2013-03-20 10:54:00,67.8,56.0,30.10,East,81,23.0,27.0,66,0.00,,,0.00,weatherlink.com 1.10,2013-03-20 15:54:00,
2013-03-20 11:09:00,67.3,55.0,30.10,NE,42,25.0,30.0,64,0.00,,,0.00,weatherlink.com 1.10,2013-03-20 16:09:00,
2013-03-20 11:24:00,67.5,56.0,30.10,NE,38,21.0,27.0,66,0.00,,,0.00,weatherlink.com 1.10,2013-03-20 16:24:00,
2013-03-20 11:39:00,68.4,57.0,30.11,ENE,65,16.0,26.0,66,0.00,,,0.00,weatherlink.com 1.10,2013-03-20 16:39:00,
2013-03-20 11:54:00,68.5,56.0,30.10,NE,47,24.0,26.0,65,0.00,,,0.00,weatherlink.com 1.10,2013-03-20 16:54:00,
2013-03-20 12:09:00,68.4,57.0,30.11,NE,43,22.0,25.0,66,0.00,,,0.00,weatherlink.com 1.10,2013-03-20 17:09:00,
2013-03-20 12:24:00,68.2,57.0,30.11,NE,34,19.0,27.0,67,0.00,,,0.00,weatherlink.com 1.10,2013-03-20 17:24:00,
2013-03-20 12:39:00,68.3,56.0,30.12,ENE,63,20.0,25.0,66,0.00,,,0.00,weatherlink.com 1.10,2013-03-20 17:39:00,
2013-03-20 12:54:00,68.1,57.0,30.12,NE,52,18.0,26.0,67,0.00,,,0.00,weatherlink.com 1.10,2013-03-20 17:54:00,
2013-03-20 13:09:00,68.4,58.0,30.11,NE,47,19.0,25.0,69,0.00,,,0.00,weatherlink.com 1.10,2013-03-20 18:09:00,
2013-03-20 13:24:00,68.2,58.0,30.11,NE,45,15.0,26.0,69,0.00,,,0.00,weatherlink.com 1.10,2013-03-20 18:24:00,
2013-03-20 13:39:00,68.6,58.0,30.11,NE,46,13.0,25.0,70,0.00,,,0.00,weatherlink.com 1.10,2013-03-20 18:39:00,
2013-03-20 13:54:00,68.2,58.0,30.11,ENE,77,14.0,26.0,70,0.00,,,0.00,weatherlink.com 1.10,2013-03-20 18:54:00,
2013-03-20 14:09:00,68.4,58.0,30.10,ENE,60,19.0,23.0,70,0.00,,,0.00,weatherlink.com 1.10,2013-03-20 19:09:00,
2013-03-20 14:24:00,68.4,58.0,30.09,ENE,73,14.0,24.0,70,0.00,,,0.00,weatherlink.com 1.10,2013-03-20 19:24:00,
2013-03-20 14:39:00,68.9,59.0,30.09,ENE,58,16.0,23.0,70,0.00,,,0.00,weatherlink.com 1.10,2013-03-20 19:39:00,
2013-03-20 14:54:00,69.4,59.0,30.07,ENE,68,12.0,21.0,69,0.00,,,0.00,weatherlink.com 1.10,2013-03-20 19:54:00,
2013-03-20 15:09:00,68.8,59.0,30.07,ENE,73,15.0,22.0,70,0.00,,,0.00,weatherlink.com 1.10,2013-03-20 20:09:00,
2013-03-20 15:24:00,69.0,59.0,30.07,ENE,75,19.0,21.0,70,0.00,,,0.00,weatherlink.com 1.10,2013-03-20 20:24:00,
2013-03-20 15:39:00,68.8,59.0,30.07,NE,46,16.0,24.0,70,0.00,,,0.00,weatherlink.com 1.10,2013-03-20 20:39:00,
2013-03-20 15:54:00,69.0,59.0,30.07,ENE,73,10.0,21.0,70,0.00,,,0.00,weatherlink.com 1.10,2013-03-20 20:54:00,
2013-03-20 16:09:00,68.8,58.0,30.06,NE,42,20.0,24.0,69,0.00,,,0.00,weatherlink.com 1.10,2013-03-20 21:09:00,
2013-03-20 16:24:00,69.0,58.0,30.05,NE,45,23.0,23.0,68,0.00,,,0.00,weatherlink.com 1.10,2013-03-20 21:24:00,
2013-03-20 16:39:00,69.1,58.0,30.05,NE,50,19.0,21.0,68,0.00,,,0.00,weatherlink.com 1.10,2013-03-20 21:39:00,
2013-03-20 16:54:00,69.5,60.0,30.05,ENE,65,9.0,21.0,71,0.00,,,0.00,weatherlink.com 1.10,2013-03-20 21:54:00,
2013-03-20 17:09:00,68.1,59.0,30.05,ENE,71,11.0,19.0,73,0.00,,,0.00,weatherlink.com 1.10,2013-03-20 22:09:00,
2013-03-20 17:24:00,68.2,59.0,30.04,ENE,77,11.0,21.0,73,0.00,,,0.00,weatherlink.com 1.10,2013-03-20 22:24:00,
2013-03-20 17:39:00,66.6,59.0,30.05,East,94,13.0,24.0,77,0.00,,,0.00,weatherlink.com 1.10,2013-03-20 22:39:00,
2013-03-20 17:54:00,66.1,59.0,30.05,East,94,12.0,22.0,79,0.00,,,0.00,weatherlink.com 1.10,2013-03-20 22:54:00,
2013-03-20 18:09:00,66.0,60.0,30.05,ENE,63,10.0,21.0,80,0.00,,,0.00,weatherlink.com 1.10,2013-03-20 23:09:00,
2013-03-20 18:24:00,66.1,59.0,30.04,East,92,13.0,21.0,77,0.00,,,0.00,weatherlink.com 1.10,2013-03-20 23:24:00,
2013-03-20 18:39:00,66.0,58.0,30.04,ENE,73,13.0,23.0,76,0.00,,,0.00,weatherlink.com 1.10,2013-03-20 23:39:00,
2013-03-20 19:09:00,65.6,53.0,30.04,NE,51,9.0,24.0,63,0.00,,,0.00,weatherlink.com 1.10,2013-03-21 00:09:00,
2013-03-20 19:24:00,65.0,52.0,30.04,East,80,15.0,25.0,63,0.00,,,0.00,weatherlink.com 1.10,2013-03-21 00:24:00,
2013-03-20 19:39:00,64.5,53.0,30.04,East,79,15.0,23.0,66,0.00,,,0.00,weatherlink.com 1.10,2013-03-21 00:39:00,
2013-03-20 19:54:00,-999.0,-99.9,30.04,North,-999,-999.0,-999.0,-999,0.00,,,0.00,weatherlink.com 1.10,2013-03-21 00:54:00,
2013-03-20 20:09:00,-999.0,-99.9,30.04,North,-999,-999.0,-999.0,-999,0.00,,,0.00,weatherlink.com 1.10,2013-03-21 01:09:00,
2013-03-20 20:24:00,-999.0,-99.9,30.05,North,-999,-999.0,-999.0,-999,0.00,,,0.00,weatherlink.com 1.10,2013-03-21 01:24:00,
2013-03-20 20:39:00,-999.0,-99.9,30.05,North,-999,-999.0,-999.0,-999,0.00,,,0.00,weatherlink.com 1.10,2013-03-21 01:39:00,
2013-03-20 20:54:00,-999.0,-99.9,30.05,North,-999,-999.0,-999.0,-999,0.00,,,0.00,weatherlink.com 1.10,2013-03-21 01:54:00,
2013-03-20 21:09:00,-999.0,-99.9,30.05,North,-999,-999.0,-999.0,-999,0.00,,,0.00,weatherlink.com 1.10,2013-03-21 02:09:00,
2013-03-20 21:25:00,-999.0,-99.9,30.05,North,-999,-999.0,-999.0,-999,0.00,,,0.00,weatherlink.com 1.10,2013-03-21 02:25:00,
2013-03-20 21:40:00,-999.0,-99.9,30.05,North,-999,-999.0,-999.0,-999,0.00,,,0.00,weatherlink.com 1.10,2013-03-21 02:40:00,
2013-03-20 21:55:00,-999.0,-99.9,30.05,North,-999,-999.0,-999.0,-999,0.00,,,0.00,weatherlink.com 1.10,2013-03-21 02:55:00,
2013-03-20 22:10:00,-999.0,-99.9,30.05,North,-999,-999.0,-999.0,-999,0.00,,,0.00,weatherlink.com 1.10,2013-03-21 03:10:00,
2013-03-20 22:25:00,-999.0,-99.9,30.05,North,-999,-999.0,-999.0,-999,0.00,,,0.00,weatherlink.com 1.10,2013-03-21 03:25:00,
2013-03-20 22:40:00,-999.0,-99.9,30.05,North,-999,-999.0,-999.0,-999,0.00,,,0.00,weatherlink.com 1.10,2013-03-21 03:40:00,
2013-03-20 22:55:00,-999.0,-99.9,30.05,North,-999,-999.0,-999.0,-999,0.00,,,0.00,weatherlink.com 1.10,2013-03-21 03:55:00,
2013-03-20 23:10:00,-999.0,-99.9,30.04,North,-999,-999.0,-999.0,-999,0.00,,,0.00,weatherlink.com 1.10,2013-03-21 04:10:00,
2013-03-20 23:25:00,-999.0,-99.9,30.03,North,-999,-999.0,-999.0,-999,0.00,,,0.00,weatherlink.com 1.10,2013-03-21 04:25:00,
2013-03-20 23:40:00,-999.0,-99.9,30.03,North,-999,-999.0,-999.0,-999,0.00,,,0.00,weatherlink.com 1.10,2013-03-21 04:40:00,
2013-03-20 23:55:00,-999.0,-99.9,30.03,North,-999,-999.0,-999.0,-999,0.00,,,0.00,weatherlink.com 1.10,2013-03-21 04:55:00,